When you browse on this site, cookies collect data to enhance your experience and personalize the content and advertising you see.
Visit our Privacy Policy to learn more. By continuing to use the site, you agree to this use of cookies and data.
  • In Österreich
  • Länderverzeichnis
  • Für 7 Tage
  • Wassertemperatur
  • Satellitenkarten
  • Wetterkarte
  • News
  • Widgets
  • user-avatar
    Anmelden

    Stündliche Wetter Wiejca

    Heute, 20 Februar, Mittwoch

    Zeit Temperatur Niederschläge Wind Luftdruck Luftfeuchtigkeit
    00:00 +3°C° 0 mm 5 m/S 751 mmHg 87%
    01:00 +3°C° 0 mm 4 m/S 751 mmHg 87%
    02:00 +3°C° 0 mm 4 m/S 751 mmHg 87%
    03:00 +2°C° 0 mm 5 m/S 752 mmHg 88%
    04:00 +2°C° 0 mm 5 m/S 752 mmHg 89%
    05:00 +2°C° 0 mm 5 m/S 752 mmHg 88%
    06:00 +2°C° 0 mm 5 m/S 752 mmHg 88%
    07:00 +2°C° 0 mm 5 m/S 752 mmHg 88%
    08:00 +2°C° 0.1 mm 6 m/S 753 mmHg 81%
    09:00 +3°C° 0.1 mm 7 m/S 753 mmHg 74%
    10:00 +4°C° 0.1 mm 8 m/S 754 mmHg 67%
    11:00 +4°C° 0.1 mm 8 m/S 754 mmHg 66%
    12:00 +4°C° 0.1 mm 8 m/S 754 mmHg 65%
    13:00 +4°C° 0.1 mm 8 m/S 754 mmHg 64%
    14:00 +4°C° 0 mm 8 m/S 754 mmHg 64%
    15:00 +4°C° 0 mm 7 m/S 755 mmHg 64%
    16:00 +4°C° 0 mm 7 m/S 755 mmHg 64%
    17:00 +4°C° 0 mm 6 m/S 755 mmHg 66%
    18:00 +3°C° 0 mm 6 m/S 755 mmHg 68%
    19:00 +3°C° 0 mm 6 m/S 756 mmHg 71%
    20:00 +3°C° 0 mm 5 m/S 756 mmHg 71%
    21:00 +3°C° 0 mm 5 m/S 757 mmHg 72%
    22:00 +4°C° 0 mm 4 m/S 757 mmHg 72%
    23:00 +3°C° 0 mm 4 m/S 758 mmHg 77%

    Morgen, 21 Februar, Donnerstag

    Zeit Temperatur Niederschläge Wind Luftdruck Luftfeuchtigkeit
    00:00 +2°C° 0 mm 3 m/S 758 mmHg 82%
    01:00 +2°C° 0 mm 3 m/S 758 mmHg 87%
    02:00 +1°C° 0 mm 3 m/S 758 mmHg 89%
    03:00 +1°C° 0 mm 3 m/S 758 mmHg 91%
    04:00 +1°C° 0 mm 3 m/S 758 mmHg 94%
    05:00 +2°C° 0.1 mm 2 m/S 758 mmHg 94%
    06:00 +2°C° 0.1 mm 2 m/S 758 mmHg 94%
    07:00 +3°C° 0.1 mm 2 m/S 758 mmHg 95%
    08:00 +2°C° 0.2 mm 3 m/S 758 mmHg 93%
    09:00 +3°C° 0.2 mm 3 m/S 758 mmHg 92%
    10:00 +4°C° 0.2 mm 4 m/S 758 mmHg 90%
    11:00 +3°C° 0.4 mm 5 m/S 758 mmHg 87%
    12:00 +5°C° 0.4 mm 5 m/S 757 mmHg 84%
    13:00 +5°C° 0.4 mm 5 m/S 757 mmHg 80%
    14:00 +5°C° 0.8 mm 5 m/S 756 mmHg 82%
    15:00 +5°C° 0.8 mm 5 m/S 756 mmHg 84%
    16:00 +3°C° 0.8 mm 5 m/S 755 mmHg 86%
    17:00 +3°C° 0.8 mm 6 m/S 755 mmHg 87%
    18:00 +3°C° 0.8 mm 6 m/S 755 mmHg 88%
    19:00 +3°C° 0.8 mm 6 m/S 754 mmHg 89%
    20:00 +3°C° 0.8 mm 6 m/S 754 mmHg 90%
    21:00 +5°C° 0.8 mm 5 m/S 754 mmHg 91%
    22:00 +5°C° 0.8 mm 5 m/S 753 mmHg 92%
    23:00 +5°C° 0.8 mm 5 m/S 754 mmHg 92%

    übermorgen, 22 Februar, Freitag

    Zeit Temperatur Niederschläge Wind Luftdruck Luftfeuchtigkeit
    00:00 +5°C° 0.8 mm 5 m/S 754 mmHg 93%
    01:00 +5°C° 0.8 mm 5 m/S 754 mmHg 94%
    02:00 +2°C° 0.4 mm 6 m/S 755 mmHg 91%
    03:00 -1°C° 0.4 mm 7 m/S 755 mmHg 88%
    04:00 -2°C° 0.4 mm 8 m/S 756 mmHg 85%
    05:00 -3°C° 0 mm 7 m/S 758 mmHg 80%
    06:00 -4°C° 0 mm 7 m/S 759 mmHg 76%
    07:00 -4°C° 0 mm 7 m/S 760 mmHg 72%
    08:00 -4°C° 0 mm 7 m/S 762 mmHg 67%
    09:00 -4°C° 0 mm 7 m/S 763 mmHg 62%
    10:00 -4°C° 0 mm 6 m/S 765 mmHg 58%
    11:00 -4°C° 0 mm 6 m/S 765 mmHg 54%
    12:00 -4°C° 0 mm 6 m/S 766 mmHg 50%
    13:00 -4°C° 0 mm 6 m/S 767 mmHg 47%
    14:00 -4°C° 0 mm 6 m/S 767 mmHg 47%
    15:00 -4°C° 0 mm 5 m/S 768 mmHg 48%
    16:00 -5°C° 0 mm 5 m/S 768 mmHg 48%
    17:00 -5°C° 0 mm 5 m/S 769 mmHg 49%
    18:00 -6°C° 0 mm 5 m/S 769 mmHg 51%
    19:00 -6°C° 0 mm 5 m/S 770 mmHg 52%
    20:00 -6°C° 0 mm 5 m/S 770 mmHg 49%
    21:00 -5°C° 0 mm 4 m/S 771 mmHg 46%
    22:00 -5°C° 0 mm 4 m/S 771 mmHg 43%
    23:00 -5°C° 0 mm 4 m/S 772 mmHg 43%

    23 Februar, Samstag

    Zeit Temperatur Niederschläge Wind Luftdruck Luftfeuchtigkeit
    00:00 -5°C° 0 mm 4 m/S 772 mmHg 43%
    01:00 -5°C° 0 mm 4 m/S 772 mmHg 43%
    02:00 -6°C° 0 mm 3 m/S 772 mmHg 44%
    03:00 -6°C° 0 mm 3 m/S 772 mmHg 45%
    04:00 -5°C° 0 mm 2 m/S 772 mmHg 47%
    05:00 -5°C° 0 mm 2 m/S 772 mmHg 48%
    06:00 -5°C° 0 mm 2 m/S 773 mmHg 49%
    07:00 -6°C° 0 mm 2 m/S 773 mmHg 50%
    08:00 -5°C° 0 mm 2 m/S 773 mmHg 45%
    09:00 -4°C° 0 mm 2 m/S 773 mmHg 41%
    10:00 -4°C° 0 mm 2 m/S 773 mmHg 37%
    11:00 -3°C° 0 mm 2 m/S 773 mmHg 34%
    12:00 -2°C° 0 mm 2 m/S 773 mmHg 31%
    13:00 -1°C° 0 mm 2 m/S 773 mmHg 28%
    14:00 -1°C° 0 mm 2 m/S 773 mmHg 29%
    15:00 -1°C° 0 mm 2 m/S 772 mmHg 30%
    16:00 -1°C° 0 mm 2 m/S 772 mmHg 30%
    17:00 -2°C° 0 mm 2 m/S 772 mmHg 33%
    18:00 0°C° 0 mm 1 m/S 772 mmHg 35%
    19:00 -1°C° 0 mm 1 m/S 772 mmHg 37%
    20:00 -1°C° 0 mm 1 m/S 772 mmHg 38%
    21:00 -1°C° 0 mm 1 m/S 772 mmHg 38%
    22:00 -1°C° 0 mm 1 m/S 771 mmHg 39%
    23:00 -1°C° 0 mm 1 m/S 771 mmHg 39%

    24 Februar, Sonntag

    Zeit Temperatur Niederschläge Wind Luftdruck Luftfeuchtigkeit
    00:00 0°C° 0 mm 1 m/S 771 mmHg 40%
    01:00 -2°C° 0 mm 2 m/S 771 mmHg 41%
    02:00 -2°C° 0 mm 2 m/S 771 mmHg 43%
    03:00 -2°C° 0 mm 2 m/S 770 mmHg 44%
    04:00 -2°C° 0 mm 3 m/S 770 mmHg 46%
    05:00 -2°C° 0 mm 3 m/S 770 mmHg 48%
    06:00 -2°C° 0 mm 3 m/S 770 mmHg 50%
    07:00 -2°C° 0 mm 3 m/S 770 mmHg 52%
    08:00 -1°C° 0 mm 3 m/S 770 mmHg 49%
    09:00 0°C° 0 mm 3 m/S 770 mmHg 47%
    10:00 +1°C° 0 mm 3 m/S 770 mmHg 44%
    11:00 +2°C° 0 mm 3 m/S 769 mmHg 44%
    12:00 +2°C° 0 mm 3 m/S 769 mmHg 45%
    13:00 +3°C° 0 mm 3 m/S 769 mmHg 45%
    14:00 +4°C° 0 mm 2 m/S 768 mmHg 50%
    15:00 +3°C° 0 mm 2 m/S 768 mmHg 55%
    16:00 +3°C° 0 mm 2 m/S 768 mmHg 60%
    17:00 +2°C° 0 mm 2 m/S 768 mmHg 64%
    18:00 +1°C° 0 mm 2 m/S 768 mmHg 68%
    19:00 -1°C° 0 mm 2 m/S 768 mmHg 72%
    20:00 -1°C° 0 mm 2 m/S 768 mmHg 73%
    21:00 -1°C° 0 mm 2 m/S 768 mmHg 74%
    22:00 -1°C° 0 mm 2 m/S 768 mmHg 75%
    23:00 -1°C° 0 mm 2 m/S 768 mmHg 75%

    25 Februar, Montag

    Zeit Temperatur Niederschläge Wind Luftdruck Luftfeuchtigkeit
    00:00 -1°C° 0 mm 2 m/S 767 mmHg 76%
    01:00 +1°C° 0 mm 2 m/S 767 mmHg 76%
    02:00 -1°C° 0 mm 3 m/S 767 mmHg 79%
    03:00 -1°C° 0 mm 3 m/S 766 mmHg 83%
    04:00 -1°C° 0 mm 3 m/S 766 mmHg 86%
    05:00 -1°C° 0 mm 3 m/S 766 mmHg 87%
    06:00 -1°C° 0 mm 3 m/S 766 mmHg 89%
    07:00 -1°C° 0 mm 3 m/S 766 mmHg 90%
    08:00 -1°C° 0 mm 4 m/S 766 mmHg 88%
    09:00 +1°C° 0 mm 5 m/S 766 mmHg 85%
    10:00 +2°C° 0 mm 6 m/S 766 mmHg 82%
    11:00 +3°C° 0 mm 5 m/S 767 mmHg 77%
    12:00 +5°C° 0 mm 5 m/S 767 mmHg 71%
    13:00 +6°C° 0 mm 5 m/S 767 mmHg 66%
    14:00 +6°C° 0 mm 5 m/S 767 mmHg 66%
    15:00 +5°C° 0 mm 4 m/S 767 mmHg 67%
    16:00 +5°C° 0 mm 3 m/S 767 mmHg 67%
    17:00 +4°C° 0 mm 3 m/S 767 mmHg 72%
    18:00 +2°C° 0 mm 3 m/S 768 mmHg 77%
    19:00 +1°C° 0 mm 3 m/S 768 mmHg 83%
    20:00 +1°C° 0 mm 3 m/S 768 mmHg 86%
    21:00 0°C° 0 mm 3 m/S 768 mmHg 88%
    22:00 0°C° 0 mm 3 m/S 768 mmHg 91%
    23:00 -1°C° 0 mm 3 m/S 768 mmHg 91%
    Mehr zeigen